TimeMDT,TemperatureF,Dew PointF,Humidity,Sea Level PressureIn,VisibilityMPH,Wind Direction,Wind SpeedMPH,Gust SpeedMPH,PrecipitationIn,Events,Conditions,WindDirDegrees,DateUTC
12:00 AM,52,41,56,30.09,25,East,103.6,,,,Scattered Clouds,100,2012-10-14 06:00:00
12:00 AM,51.8,41.0,67,30.09,25.0,South,10.4,-,N/A,,Mostly Cloudy,190,2012-10-14 06:00:00
1:00 AM,50.0,42.8,76,30.09,25.0,SSE,8.1,-,N/A,,Mostly Cloudy,150,2012-10-14 07:00:00
2:00 AM,50.0,42.8,76,30.10,25.0,South,4.6,-,N/A,,Mostly Cloudy,190,2012-10-14 08:00:00
3:00 AM,51.8,42.8,71,30.09,25.0,SSE,8.1,-,N/A,,Mostly Cloudy,160,2012-10-14 09:00:00
4:00 AM,51.8,44.6,76,30.08,25.0,SSE,10.4,-,N/A,,Mostly Cloudy,160,2012-10-14 10:00:00
5:00 AM,50.0,42.8,76,30.06,20.0,Calm,Calm,-,N/A,Rain,Light Rain Showers,0,2012-10-14 11:00:00
6:00 AM,47,44,86,30.06,15,Calm,Calm,,,Rain,Light Rain,,2012-10-14 12:00:00
6:00 AM,48.2,44.6,87,30.06,15.0,Calm,Calm,-,N/A,Rain,Light Rain,0,2012-10-14 12:00:00
6:34 AM,-9999,-9999,N/A,-9999,15.0,Calm,Calm,-,N/A,,Overcast,0,2012-10-14 12:34:00
7:00 AM,46.4,44.6,93,30.04,20.0,South,3.5,-,N/A,,Overcast,190,2012-10-14 13:00:00
7:42 AM,-9999,-9999,N/A,-9999,15.0,SSE,12.7,-,N/A,Rain,Light Rain Showers,150,2012-10-14 13:42:00
8:00 AM,51.8,46.4,82,30.02,15.0,SSE,11.5,17.3,N/A,Rain,Light Rain Showers,150,2012-10-14 14:00:00
9:00 AM,51.8,46.4,82,30.00,15.0,SE,9.2,-,N/A,Rain,Light Rain Showers,140,2012-10-14 15:00:00
10:00 AM,53.6,46.4,77,30.00,15.0,SSE,11.5,18.4,N/A,Rain,Light Rain Showers,150,2012-10-14 16:00:00
11:00 AM,53.6,46.4,77,29.99,15.0,SSE,15.0,20.7,N/A,Rain,Light Rain Showers,150,2012-10-14 17:00:00
12:00 PM,55,48,70,29.98,15,SSE,11.5,,,Rain,Light Rain Showers,150,2012-10-14 18:00:00
12:00 PM,55.4,48.2,77,29.98,15.0,SSE,11.5,18.4,N/A,Rain,Light Rain Showers,150,2012-10-14 18:00:00
1:00 PM,55.4,48.2,77,29.97,12.0,SSE,17.3,24.2,N/A,Rain,Light Rain Showers,150,2012-10-14 19:00:00
2:00 PM,55.4,48.2,77,29.95,15.0,SSE,17.3,24.2,N/A,Rain,Light Rain Showers,160,2012-10-14 20:00:00
3:00 PM,55.4,50.0,82,29.94,12.0,SSE,15.0,23.0,N/A,Rain,Light Rain Showers,160,2012-10-14 21:00:00
4:00 PM,55.4,50.0,82,29.92,15.0,South,16.1,25.3,N/A,Rain,Light Rain Showers,170,2012-10-14 22:00:00
5:00 PM,55.4,48.2,77,29.91,15.0,South,20.7,27.6,N/A,Rain,Light Rain Showers,170,2012-10-14 23:00:00
6:00 PM,54,47,72,29.92,15,SSE,12.7,,,Rain,Light Rain Showers,160,2012-10-15 00:00:00
6:00 PM,55.4,48.2,77,29.92,15.0,SSE,12.7,21.9,N/A,Rain,Light Rain Showers,160,2012-10-15 00:00:00
6:28 PM,-9999,-9999,N/A,-9999,20.0,SSE,13.8,21.9,N/A,,Overcast,150,2012-10-15 00:28:00
7:00 PM,53.6,46.4,77,29.91,20.0,SSE,12.7,19.6,N/A,,Overcast,150,2012-10-15 01:00:00
8:00 PM,53.6,46.4,77,29.91,20.0,SSE,15.0,20.7,N/A,,Overcast,150,2012-10-15 02:00:00
9:00 PM,53.6,44.6,72,29.89,20.0,SSE,15.0,23.0,N/A,,Overcast,160,2012-10-15 03:00:00
10:00 PM,55.4,44.6,67,29.89,20.0,South,12.7,-,N/A,,Overcast,180,2012-10-15 04:00:00
11:00 PM,53.6,44.6,72,29.87,20.0,SSE,9.2,-,N/A,,Overcast,150,2012-10-15 05:00:00